• în Republica Moldova
  • Lista ţărilor
  • Pe 7 zile
  • Temperatura apei
  • Hartă satelitară
  • Meteo pe hartă
  • Widget-uri
  • user-avatar
    Intrare

    Meteo pe oră la Coasta de Aur

    Astăzi, 24 Martie, Vineri

    Timp Temperatura Precipitaţii Vânt Presiune Umiditate
    00:00 +23°C° 0,2 mm 2 m/s 758 mmHg 95%
    01:00 +23°C° 0,2 mm 2 m/s 757 mmHg 95%
    02:00 +22°C° 0,3 mm 3 m/s 757 mmHg 96%
    03:00 +22°C° 0,3 mm 3 m/s 757 mmHg 96%
    04:00 +22°C° 0 mm 3 m/s 757 mmHg 96%
    05:00 +22°C° 0,4 mm 3 m/s 757 mmHg 95%
    06:00 +24°C° 0,4 mm 3 m/s 757 mmHg 93%
    07:00 +23°C° 0,4 mm 4 m/s 757 mmHg 92%
    08:00 +26°C° 0,3 mm 4 m/s 758 mmHg 85%
    09:00 +27°C° 0,3 mm 4 m/s 758 mmHg 78%
    10:00 +29°C° 0 mm 2 m/s 758 mmHg 70%
    11:00 +30°C° 0,2 mm 3 m/s 758 mmHg 70%
    12:00 +30°C° 0,2 mm 4 m/s 757 mmHg 71%
    13:00 +30°C° 0,2 mm 4 m/s 757 mmHg 72%
    14:00 +29°C° 0,3 mm 5 m/s 757 mmHg 74%
    15:00 +28°C° 0,3 mm 5 m/s 757 mmHg 77%
    16:00 +27°C° 0 mm 5 m/s 757 mmHg 82%
    17:00 +26°C° 0,1 mm 5 m/s 757 mmHg 85%
    18:00 +25°C° 0,1 mm 5 m/s 757 mmHg 88%
    19:00 +23°C° 0,1 mm 5 m/s 757 mmHg 91%
    20:00 +23°C° 0,1 mm 5 m/s 758 mmHg 92%
    21:00 +23°C° 0,1 mm 5 m/s 758 mmHg 92%
    22:00 +22°C° 0,1 mm 5 m/s 758 mmHg 92%
    23:00 +22°C° 0,2 mm 5 m/s 758 mmHg 92%

    Mâine, 25 Martie, Sâmbătă

    Timp Temperatura Precipitaţii Vânt Presiune Umiditate
    00:00 +22°C° 0,2 mm 5 m/s 758 mmHg 92%
    01:00 +22°C° 0,2 mm 5 m/s 758 mmHg 92%
    02:00 +22°C° 0,1 mm 5 m/s 758 mmHg 92%
    03:00 +22°C° 0,1 mm 5 m/s 758 mmHg 93%
    04:00 +22°C° 0,1 mm 5 m/s 758 mmHg 93%
    05:00 +22°C° 0,1 mm 5 m/s 758 mmHg 91%
    06:00 +22°C° 0,1 mm 5 m/s 758 mmHg 90%
    07:00 +22°C° 0,1 mm 6 m/s 758 mmHg 89%
    08:00 +24°C° 0,1 mm 6 m/s 758 mmHg 83%
    09:00 +26°C° 0,1 mm 6 m/s 758 mmHg 78%
    10:00 +27°C° 0,1 mm 6 m/s 758 mmHg 72%
    11:00 +28°C° 0,1 mm 6 m/s 758 mmHg 71%
    12:00 +28°C° 0,1 mm 6 m/s 758 mmHg 70%
    13:00 +29°C° 0,1 mm 5 m/s 757 mmHg 68%
    14:00 +28°C° 0 mm 5 m/s 757 mmHg 70%
    15:00 +28°C° 0 mm 5 m/s 757 mmHg 73%
    16:00 +27°C° 0 mm 5 m/s 757 mmHg 75%
    17:00 +26°C° 0 mm 5 m/s 757 mmHg 80%
    18:00 +23°C° 0 mm 4 m/s 757 mmHg 85%
    19:00 +22°C° 0 mm 4 m/s 758 mmHg 90%
    20:00 +22°C° 0 mm 3 m/s 758 mmHg 91%
    21:00 +21°C° 0 mm 3 m/s 758 mmHg 92%
    22:00 +21°C° 0 mm 2 m/s 759 mmHg 93%
    23:00 +20°C° 0 mm 2 m/s 758 mmHg 94%

    Poimâine, 26 Martie, Duminică

    Timp Temperatura Precipitaţii Vânt Presiune Umiditate
    00:00 +21°C° 0 mm 1 m/s 758 mmHg 94%
    01:00 +20°C° 0 mm 1 m/s 758 mmHg 94%
    02:00 +20°C° 0 mm 1 m/s 757 mmHg 94%
    03:00 +20°C° 0 mm 1 m/s 757 mmHg 94%
    04:00 +20°C° 0 mm 1 m/s 757 mmHg 94%
    05:00 +21°C° 0 mm 1 m/s 757 mmHg 91%
    06:00 +22°C° 0 mm 1 m/s 757 mmHg 89%
    07:00 +24°C° 0 mm 1 m/s 758 mmHg 87%
    08:00 +25°C° 0 mm 1 m/s 758 mmHg 80%
    09:00 +27°C° 0 mm 2 m/s 758 mmHg 73%
    10:00 +29°C° 0 mm 2 m/s 758 mmHg 66%
    11:00 +30°C° 0 mm 2 m/s 758 mmHg 63%
    12:00 +31°C° 0 mm 3 m/s 757 mmHg 61%
    13:00 +31°C° 0 mm 3 m/s 756 mmHg 59%
    14:00 +31°C° 0 mm 3 m/s 756 mmHg 63%
    15:00 +30°C° 0 mm 3 m/s 756 mmHg 67%
    16:00 +29°C° 0 mm 3 m/s 756 mmHg 71%
    17:00 +28°C° 0,1 mm 3 m/s 756 mmHg 76%
    18:00 +26°C° 0,1 mm 3 m/s 757 mmHg 82%
    19:00 +25°C° 0,1 mm 3 m/s 757 mmHg 88%
    20:00 +25°C° 0 mm 3 m/s 757 mmHg 88%
    21:00 +25°C° 0 mm 3 m/s 758 mmHg 89%
    22:00 +24°C° 0 mm 3 m/s 758 mmHg 90%
    23:00 +24°C° 0 mm 2 m/s 758 mmHg 91%

    27 Martie, Luni

    Timp Temperatura Precipitaţii Vânt Presiune Umiditate
    00:00 +24°C° 0 mm 2 m/s 758 mmHg 92%
    01:00 +23°C° 0 mm 2 m/s 757 mmHg 93%
    02:00 +23°C° 0 mm 1 m/s 757 mmHg 94%
    03:00 +22°C° 0 mm 1 m/s 757 mmHg 94%
    04:00 +22°C° 0 mm 1 m/s 757 mmHg 95%
    05:00 +23°C° 0 mm 2 m/s 757 mmHg 92%
    06:00 +24°C° 0 mm 2 m/s 758 mmHg 90%
    07:00 +25°C° 0 mm 2 m/s 758 mmHg 88%
    08:00 +26°C° 0 mm 2 m/s 758 mmHg 83%
    09:00 +27°C° 0 mm 3 m/s 758 mmHg 78%
    10:00 +28°C° 0 mm 3 m/s 758 mmHg 74%
    11:00 +28°C° 0 mm 3 m/s 758 mmHg 72%
    12:00 +29°C° 0 mm 3 m/s 757 mmHg 70%
    13:00 +29°C° 0 mm 3 m/s 757 mmHg 68%
    14:00 +29°C° 0 mm 3 m/s 756 mmHg 68%
    15:00 +29°C° 0 mm 4 m/s 756 mmHg 68%
    16:00 +29°C° 0 mm 4 m/s 756 mmHg 69%
    17:00 +27°C° 0 mm 4 m/s 756 mmHg 75%
    18:00 +25°C° 0 mm 3 m/s 757 mmHg 82%
    19:00 +24°C° 0 mm 3 m/s 757 mmHg 88%
    20:00 +22°C° 0 mm 3 m/s 757 mmHg 90%
    21:00 +21°C° 0 mm 3 m/s 758 mmHg 91%
    22:00 +21°C° 0 mm 2 m/s 758 mmHg 92%
    23:00 +21°C° 0 mm 2 m/s 758 mmHg 93%

    28 Martie, Marţi

    Timp Temperatura Precipitaţii Vânt Presiune Umiditate
    00:00 +20°C° 0 mm 2 m/s 757 mmHg 93%
    01:00 +20°C° 0 mm 2 m/s 757 mmHg 93%
    02:00 +20°C° 0 mm 2 m/s 757 mmHg 93%
    03:00 +20°C° 0 mm 2 m/s 756 mmHg 93%
    04:00 +20°C° 0 mm 2 m/s 756 mmHg 93%
    05:00 +21°C° 0 mm 2 m/s 757 mmHg 91%
    06:00 +23°C° 0 mm 2 m/s 757 mmHg 88%
    07:00 +24°C° 0 mm 1 m/s 758 mmHg 86%
    08:00 +26°C° 0 mm 2 m/s 758 mmHg 78%
    09:00 +27°C° 0 mm 2 m/s 758 mmHg 70%
    10:00 +29°C° 0 mm 2 m/s 758 mmHg 62%
    11:00 +30°C° 0 mm 2 m/s 757 mmHg 60%
    12:00 +31°C° 0 mm 3 m/s 757 mmHg 57%
    13:00 +33°C° 0 mm 3 m/s 756 mmHg 54%
    14:00 +31°C° 0 mm 3 m/s 756 mmHg 59%
    15:00 +30°C° 0 mm 4 m/s 756 mmHg 64%
    16:00 +29°C° 0 mm 4 m/s 756 mmHg 69%
    17:00 +27°C° 0 mm 4 m/s 756 mmHg 76%
    18:00 +25°C° 0 mm 4 m/s 757 mmHg 82%
    19:00 +22°C° 0 mm 3 m/s 757 mmHg 89%
    20:00 +22°C° 0 mm 3 m/s 758 mmHg 90%
    21:00 +21°C° 0 mm 3 m/s 758 mmHg 91%
    22:00 +21°C° 0 mm 3 m/s 758 mmHg 92%
    23:00 +21°C° 0 mm 2 m/s 758 mmHg 92%

    29 Martie, Miercuri

    Timp Temperatura Precipitaţii Vânt Presiune Umiditate
    00:00 +21°C° 0 mm 2 m/s 758 mmHg 92%
    01:00 +21°C° 0 mm 2 m/s 758 mmHg 92%
    02:00 +21°C° 0 mm 2 m/s 758 mmHg 92%
    03:00 +21°C° 0 mm 2 m/s 757 mmHg 91%
    04:00 +21°C° 0 mm 2 m/s 757 mmHg 91%
    05:00 +23°C° 0 mm 2 m/s 758 mmHg 89%
    06:00 +23°C° 0 mm 2 m/s 758 mmHg 87%
    07:00 +24°C° 0 mm 2 m/s 759 mmHg 85%
    08:00 +26°C° 0 mm 3 m/s 759 mmHg 77%
    09:00 +27°C° 0 mm 3 m/s 759 mmHg 69%
    10:00 +28°C° 0 mm 3 m/s 759 mmHg 61%
    11:00 +29°C° 0 mm 3 m/s 758 mmHg 59%
    12:00 +29°C° 0 mm 3 m/s 758 mmHg 58%
    13:00 +29°C° 0 mm 3 m/s 757 mmHg 56%
    14:00 +29°C° 0 mm 4 m/s 757 mmHg 59%
    15:00 +28°C° 0 mm 4 m/s 757 mmHg 61%
    16:00 +28°C° 0 mm 4 m/s 757 mmHg 63%
    17:00 +26°C° 0 mm 4 m/s 757 mmHg 69%
    18:00 +25°C° 0 mm 4 m/s 758 mmHg 75%
    19:00 +22°C° 0 mm 4 m/s 758 mmHg 81%
    20:00 +22°C° 0 mm 3 m/s 758 mmHg 82%
    21:00 +22°C° 0 mm 3 m/s 758 mmHg 84%
    22:00 +21°C° 0 mm 3 m/s 758 mmHg 86%
    23:00 +21°C° 0 mm 3 m/s 758 mmHg 85%
    Arată mai mult